Showing default

QIANFAN-59, 62789

Orbit data source: Space-Track

QIANFAN-59, 62789 is a Chinese payload satellite in LEO that was launched on Thu, 23 Jan 2025 UTC via a CHANG ZHENG 6A launch vehicle from the Taiyaun Space Center, China (TSC). Payload-class satellites include a variety of spacecraft equipped with specific instruments for various scientific and technological missions. These include communications satellites like Starlink; space stations such as the ISS; scientific satellites like the Hubble; Earth observation satellites from companies like Planet Labs, Umbra, and HawkEye 360; GPS; miniature CubeSats for education and research; and military/defense satellites.

Loading next visibility...
Identifier
62789, 2025-016E
Orbit
LEO
Country
Flag of CNCN / PRC
Related business
Manufacturer
SECM
Mission
Operational Commercial Communications
Bus & Motor
QIANFAN, Unknown motor
Mass
267 kg wet, ~267 kg dry
Launch date (UTC)
2025-01-23 (9 months ago)
Launch vehicle
CHANG ZHENG 6A
Launch site
Taiyaun Space Center, China (TSC)
Object type
Payload
Rocket body
Debris
Shape & HBR
Box + 1 Pan, 1.5 m
Radar Cross Section
13.200 m², Large (>1 m²)

Expand to show TLE details & history
Last TLE update: 1 day ago

TLE from 1 day ago
0 QIANFAN-59
1 62789U 25016E   25306.45592035  .00000060  00000-0  73355-4 0  9998
2 62789  88.9745 107.2641 0015931 102.6087 257.6847 13.50976364 41805
Epoch: 2025-11-02T10:56Z
TLE epoch observation values (Epoch: 2025-11-02T10:56:31.518Z)
Latitude
0.00002°
Longitude
-98.83862°
Altitude
1,074.171 km
Speed
7.314 km/s
True Right ascension
07h 09m 03s
True Declination
0° 00' 00"
Sunlit
Object was in daylight at epoch
Visualization orbit readout
Latitude
Unknown
Longitude
Unknown
Altitude
Unknown
Speed
Unknown
Apparent Right ascension
Unknown
Apparent Declination
Unknown
Sunlit
N/A
Visualization observer readout
Local Sidereal Time
14:39:27
Azimuth
Unknown
Elevation
Unknown
Doppler factor
Unknown
Orbital elements
Apogee altitude
1,077.578 km
Perigee altitude
1,053.861 km
Semi-major axis
7,443.857 km
Eccentricity
0.00159
Inclination
88.9745°
RAAN
107.2641°
Arg. of periapsis
102.6087°
True anomaly
257.50642°
Mean anomaly
257.6847°
Eccentric anomaly
257.59555°
Mean motion
3.37945 °/min
Orbital period
106.53 mins
BSTAR
0.000073355
Loading maneuver chart data...
Computing Atmospheric mass density...
Loading historical data...
Loading historical data...
Loading historical data...
Loading historical data...
Loading historical data...
Loading historical data...
Loading historical data...

Documentation

Showing up to 5 results
|